Simultaneous Nadir Overpasses (SNOs) Predictions

Prediction of SNOs between AQUA and NOAA-19 Satellite Orbit:

Table of predicted SNOs for the next 14.0 days since TLE Epoch: 10/17/2020
Index Date (AQUA) Time (AQUA) Lat,Lon (AQUA) SZA (AQUA ) Date (NOAA-19) Time (NOAA-19) Lat,Lon (NOAA-19) SZA (NOAA-19 ) Distance(km) Time Diff (sec)
1 10/19/2020 03:42:04 79.44, 98.12 90.30 10/19/2020 03:42:00 79.46, 98.13 90.33 2.81 4
2 10/21/2020 09:15:47 -79.44,-165.34 88.91 10/21/2020 09:15:17 -79.44,-165.35 88.90 0.67 30
3 10/21/2020 10:05:14 79.47, 2.14 91.14 10/21/2020 10:06:15 79.46, 2.08 91.12 1.71 61
4 10/23/2020 14:49:28 79.42, -68.63 91.84 10/23/2020 14:48:29 79.43, -68.61 91.87 1.22 59
5 10/23/2020 15:38:55 -79.44, 98.92 88.13 10/23/2020 15:39:31 -79.45, 98.77 88.12 3.26 36
6 10/25/2020 21:12:38 79.46,-164.65 92.67 10/25/2020 21:12:44 79.42,-164.67 92.64 3.64 6
7 10/28/2020 02:46:20 -79.43, -67.91 86.63 10/28/2020 02:46:02 -79.42, -67.95 86.63 1.51 18
8 10/28/2020 03:35:47 79.45, 99.57 93.42 10/28/2020 03:36:58 79.44, 99.55 93.39 1.26 71
9 10/30/2020 08:20:02 79.42, 28.74 94.09 10/30/2020 08:19:13 79.42, 28.85 94.10 2.31 49
